Voltar ao catálogo

STARLINK-34435

AtivoComunicaçõesVLEO
NORAD 64602·PAYLOAD·🇺🇸 United States

Lançado Jun 25, 2025 de Cape Canaveral Space Force Station

Loading…

Próximas Passagens (próximas 24 horas)

TLE

AtualizadoSource: CelesTrak SupGP

Época: Sep 15, 2026, 02:25 UTC

1 64602C 25137J   26258.10118056 -.00039784  00000+0 -11751-2 0  2588
2 64602  53.1567 172.8967 0001306  84.0542 164.1265 15.34418708    17

Acompanhe STARLINK-34435 em tempo real com AllMySat

Download on the App Store